Time,TemperatureF,DewpointF,PressureIn,WindDirection,WindDirectionDegrees,WindSpeedMPH,WindSpeedGustMPH,Humidity,HourlyPrecipIn,Conditions,Clouds,dailyrainin,SolarRadiationWatts/m^2,SoftwareType,DateUTC
2013-07-13 00:22:00,64.0,60.0,-100.00,SSE,164,0.0,0.0,87,0.00,,,0.00,1.000000,,2013-07-13 05:22:00,
2013-07-13 00:32:00,64.0,60.0,-100.00,SSE,164,0.0,0.0,87,0.00,,,0.00,1.000000,,2013-07-13 05:32:00,
2013-07-13 00:42:00,64.0,60.0,-100.00,SSE,164,0.0,0.0,87,0.00,,,0.00,1.000000,,2013-07-13 05:42:00,
2013-07-13 00:52:00,64.0,60.0,-100.00,SSE,164,0.0,0.0,87,0.00,,,0.00,1.000000,,2013-07-13 05:52:00,
2013-07-13 01:22:00,63.0,60.0,-100.00,NE,40,0.0,0.0,90,0.00,,,0.00,1.000000,,2013-07-13 06:22:00,
2013-07-13 01:32:00,63.0,60.0,-100.00,NE,40,0.0,0.0,90,0.00,,,0.00,1.000000,,2013-07-13 06:32:00,
2013-07-13 01:43:00,63.0,60.0,-100.00,NE,40,0.0,0.0,90,0.00,,,0.00,1.000000,,2013-07-13 06:43:00,
2013-07-13 01:52:00,63.0,60.0,-100.00,NE,40,0.0,0.0,90,0.00,,,0.00,1.000000,,2013-07-13 06:52:00,
2013-07-13 01:53:00,63.0,60.0,-100.00,East,82,0.0,0.0,89,0.00,,,0.00,1.000000,,2013-07-13 06:53:00,
2013-07-13 02:11:00,63.0,60.0,-100.00,East,82,0.0,0.0,89,0.00,,,0.00,1.000000,,2013-07-13 07:11:00,
2013-07-13 02:22:00,63.0,60.0,-100.00,East,82,0.0,0.0,89,0.00,,,0.00,1.000000,,2013-07-13 07:22:00,
2013-07-13 02:33:00,63.0,60.0,-100.00,East,82,0.0,0.0,89,0.00,,,0.00,1.000000,,2013-07-13 07:33:00,
2013-07-13 02:44:00,63.0,60.0,-100.00,East,82,0.0,0.0,89,0.00,,,0.00,1.000000,,2013-07-13 07:44:00,
2013-07-13 03:22:00,62.0,59.0,-100.00,SSE,157,0.0,0.0,90,0.00,,,0.00,1.000000,,2013-07-13 08:22:00,
2013-07-13 03:33:00,62.0,59.0,-100.00,SSE,157,0.0,0.0,90,0.00,,,0.00,1.000000,,2013-07-13 08:33:00,
2013-07-13 03:43:00,62.0,59.0,-100.00,SSE,157,0.0,0.0,90,0.00,,,0.00,1.000000,,2013-07-13 08:43:00,
2013-07-13 03:52:00,62.0,59.0,-100.00,SSE,157,0.0,0.0,90,0.00,,,0.00,1.000000,,2013-07-13 08:52:00,
2013-07-13 03:53:00,60.0,58.0,-100.00,SE,141,0.0,0.0,94,0.00,,,0.00,1.000000,,2013-07-13 08:53:00,
2013-07-13 04:22:00,60.0,58.0,-100.00,SE,141,0.0,0.0,94,0.00,,,0.00,1.000000,,2013-07-13 09:22:00,
2013-07-13 04:33:00,60.0,58.0,-100.00,SE,141,0.0,0.0,94,0.00,,,0.00,1.000000,,2013-07-13 09:33:00,
2013-07-13 04:43:00,60.0,58.0,-100.00,SE,141,0.0,0.0,94,0.00,,,0.00,1.000000,,2013-07-13 09:43:00,
2013-07-13 05:11:00,60.0,58.0,-100.00,WSW,243,0.0,2.0,94,0.00,,,0.00,1.000000,,2013-07-13 10:11:00,
2013-07-13 05:22:00,60.0,58.0,-100.00,WSW,243,0.0,2.0,94,0.00,,,0.00,1.000000,,2013-07-13 10:22:00,
2013-07-13 05:32:00,60.0,58.0,-100.00,WSW,243,0.0,2.0,94,0.00,,,0.00,1.000000,,2013-07-13 10:32:00,
2013-07-13 05:43:00,60.0,58.0,-100.00,WSW,243,0.0,2.0,94,0.00,,,0.00,1.000000,,2013-07-13 10:43:00,
2013-07-13 05:52:00,60.0,58.0,-100.00,WSW,243,0.0,2.0,94,0.00,,,0.00,1.000000,,2013-07-13 10:52:00,
2013-07-13 06:11:00,60.0,58.0,-100.00,SSE,164,0.0,2.0,93,0.00,,,0.00,1.000000,,2013-07-13 11:11:00,
2013-07-13 06:22:00,60.0,58.0,-100.00,SSE,164,0.0,2.0,93,0.00,,,0.00,1.000000,,2013-07-13 11:22:00,
2013-07-13 06:32:00,60.0,58.0,-100.00,SSE,164,0.0,2.0,93,0.00,,,0.00,1.000000,,2013-07-13 11:32:00,
2013-07-13 06:42:00,60.0,58.0,-100.00,SSE,164,0.0,2.0,93,0.00,,,0.00,1.000000,,2013-07-13 11:42:00,
2013-07-13 06:52:00,60.0,58.0,-100.00,SSE,164,0.0,2.0,93,0.00,,,0.00,1.000000,,2013-07-13 11:52:00,
2013-07-13 07:22:00,63.0,59.0,-100.00,SW,219,0.0,4.0,87,0.00,,,0.00,35.000000,,2013-07-13 12:22:00,
2013-07-13 07:32:00,63.0,59.0,-100.00,SW,219,0.0,4.0,87,0.00,,,0.00,35.000000,,2013-07-13 12:32:00,
2013-07-13 07:43:00,63.0,59.0,-100.00,SW,219,0.0,4.0,87,0.00,,,0.00,35.000000,,2013-07-13 12:43:00,
2013-07-13 07:52:00,63.0,59.0,-100.00,SW,219,0.0,4.0,87,0.00,,,0.00,35.000000,,2013-07-13 12:52:00,
2013-07-13 07:53:00,70.0,62.0,-100.00,West,260,3.0,5.0,75,0.00,,,0.00,224.000000,,2013-07-13 12:53:00,
2013-07-13 08:22:00,70.0,62.0,-100.00,West,260,3.0,5.0,75,0.00,,,0.00,224.000000,,2013-07-13 13:22:00,
2013-07-13 08:32:00,70.0,62.0,-100.00,West,260,3.0,5.0,75,0.00,,,0.00,224.000000,,2013-07-13 13:32:00,
2013-07-13 08:43:00,70.0,62.0,-100.00,West,260,3.0,5.0,75,0.00,,,0.00,224.000000,,2013-07-13 13:43:00,
2013-07-13 08:53:00,75.0,63.0,-100.00,West,267,3.0,6.0,66,0.00,,,0.00,425.000000,,2013-07-13 13:53:00,
2013-07-13 09:53:00,80.0,64.0,-100.00,West,263,3.0,6.0,58,0.00,,,0.00,628.000000,,2013-07-13 14:53:00,
2013-07-13 10:33:00,80.0,64.0,-100.00,West,263,3.0,6.0,58,0.00,,,0.00,628.000000,,2013-07-13 15:33:00,
2013-07-13 10:43:00,80.0,64.0,-100.00,West,263,3.0,6.0,58,0.00,,,0.00,628.000000,,2013-07-13 15:43:00,
2013-07-13 10:53:00,81.0,57.0,-100.00,WNW,287,5.0,10.0,44,0.00,,,0.00,773.000000,,2013-07-13 15:53:00,
2013-07-13 11:11:00,81.0,57.0,-100.00,WNW,287,5.0,10.0,44,0.00,,,0.00,773.000000,,2013-07-13 16:11:00,
2013-07-13 11:22:00,81.0,57.0,-100.00,WNW,287,5.0,10.0,44,0.00,,,0.00,773.000000,,2013-07-13 16:22:00,
2013-07-13 11:33:00,81.0,57.0,-100.00,WNW,287,5.0,10.0,44,0.00,,,0.00,773.000000,,2013-07-13 16:33:00,
2013-07-13 11:43:00,81.0,57.0,-100.00,WNW,287,5.0,10.0,44,0.00,,,0.00,773.000000,,2013-07-13 16:43:00,
2013-07-13 12:12:00,84.0,60.0,-100.00,NW,317,5.0,12.0,45,0.00,,,0.00,716.000000,,2013-07-13 17:12:00,
2013-07-13 12:22:00,84.0,60.0,-100.00,NW,317,5.0,12.0,45,0.00,,,0.00,716.000000,,2013-07-13 17:22:00,
2013-07-13 12:33:00,84.0,60.0,-100.00,NW,317,5.0,12.0,45,0.00,,,0.00,716.000000,,2013-07-13 17:33:00,
2013-07-13 12:43:00,84.0,60.0,-100.00,NW,317,5.0,12.0,45,0.00,,,0.00,716.000000,,2013-07-13 17:43:00,
2013-07-13 12:52:00,84.0,60.0,-100.00,NW,317,5.0,12.0,45,0.00,,,0.00,716.000000,,2013-07-13 17:52:00,
2013-07-13 12:53:00,84.0,60.0,-100.00,NW,322,5.0,11.0,45,0.00,,,0.00,977.000000,,2013-07-13 17:53:00,
2013-07-13 13:22:00,84.0,60.0,-100.00,NW,322,5.0,11.0,45,0.00,,,0.00,977.000000,,2013-07-13 18:22:00,
2013-07-13 13:32:00,84.0,60.0,-100.00,NW,322,5.0,11.0,45,0.00,,,0.00,977.000000,,2013-07-13 18:32:00,
2013-07-13 13:44:00,84.0,60.0,-100.00,NW,322,5.0,11.0,45,0.00,,,0.00,977.000000,,2013-07-13 18:44:00,
2013-07-13 14:11:00,86.0,59.0,-100.00,NNW,344,5.0,15.0,40,0.00,,,-99.99,1017.000000,,2013-07-13 19:11:00,
2013-07-13 14:22:00,86.0,59.0,-100.00,NNW,344,5.0,15.0,40,0.00,,,-99.99,1017.000000,,2013-07-13 19:22:00,
2013-07-13 14:32:00,86.0,59.0,-100.00,NNW,344,5.0,15.0,40,0.00,,,-99.99,1017.000000,,2013-07-13 19:32:00,
2013-07-13 14:44:00,86.0,59.0,-100.00,NNW,344,5.0,15.0,40,0.00,,,-99.99,1017.000000,,2013-07-13 19:44:00,
2013-07-13 14:52:00,86.0,59.0,-100.00,NNW,344,5.0,15.0,40,0.00,,,-99.99,1017.000000,,2013-07-13 19:52:00,
2013-07-13 15:11:00,86.0,57.0,-100.00,WNW,293,6.0,14.0,38,0.00,,,0.00,936.000000,,2013-07-13 20:11:00,
2013-07-13 15:22:00,86.0,57.0,-100.00,WNW,293,6.0,14.0,38,0.00,,,0.00,936.000000,,2013-07-13 20:22:00,
2013-07-13 15:33:00,86.0,57.0,-100.00,WNW,293,6.0,14.0,38,0.00,,,0.00,936.000000,,2013-07-13 20:33:00,
2013-07-13 15:43:00,86.0,57.0,-100.00,WNW,293,6.0,14.0,38,0.00,,,0.00,936.000000,,2013-07-13 20:43:00,
2013-07-13 15:52:00,86.0,57.0,-100.00,WNW,293,6.0,14.0,38,0.00,,,0.00,936.000000,,2013-07-13 20:52:00,
2013-07-13 15:53:00,87.0,58.0,-100.00,NW,308,4.0,12.0,38,0.00,,,0.00,717.000000,,2013-07-13 20:53:00,
2013-07-13 16:12:00,87.0,58.0,-100.00,NW,308,4.0,12.0,38,0.00,,,0.00,717.000000,,2013-07-13 21:12:00,
2013-07-13 16:22:00,87.0,58.0,-100.00,NW,308,4.0,12.0,38,0.00,,,0.00,717.000000,,2013-07-13 21:22:00,
2013-07-13 16:32:00,87.0,58.0,-100.00,NW,308,4.0,12.0,38,0.00,,,0.00,717.000000,,2013-07-13 21:32:00,
2013-07-13 16:42:00,87.0,58.0,-100.00,NW,308,4.0,12.0,38,0.00,,,0.00,717.000000,,2013-07-13 21:42:00,
2013-07-13 16:53:00,88.0,58.0,-100.00,WNW,284,4.0,11.0,37,0.00,,,0.00,764.000000,,2013-07-13 21:53:00,
2013-07-13 17:12:00,88.0,58.0,-100.00,WNW,284,4.0,11.0,37,0.00,,,0.00,764.000000,,2013-07-13 22:12:00,
2013-07-13 17:22:00,88.0,58.0,-100.00,WNW,284,4.0,11.0,37,0.00,,,0.00,764.000000,,2013-07-13 22:22:00,
2013-07-13 17:32:00,88.0,58.0,-100.00,WNW,284,4.0,11.0,37,0.00,,,0.00,764.000000,,2013-07-13 22:32:00,
2013-07-13 17:43:00,88.0,58.0,-100.00,WNW,284,4.0,11.0,37,0.00,,,0.00,764.000000,,2013-07-13 22:43:00,
2013-07-13 17:53:00,86.0,56.0,-100.00,West,270,6.0,11.0,36,0.00,,,0.00,564.000000,,2013-07-13 22:53:00,
2013-07-13 18:11:00,86.0,56.0,-100.00,West,270,6.0,11.0,36,0.00,,,0.00,564.000000,,2013-07-13 23:11:00,
2013-07-13 18:22:00,86.0,56.0,-100.00,West,270,6.0,11.0,36,0.00,,,0.00,564.000000,,2013-07-13 23:22:00,
2013-07-13 18:32:00,86.0,56.0,-100.00,West,270,6.0,11.0,36,0.00,,,0.00,564.000000,,2013-07-13 23:32:00,
2013-07-13 18:42:00,86.0,56.0,-100.00,West,270,6.0,11.0,36,0.00,,,0.00,564.000000,,2013-07-13 23:42:00,
2013-07-13 18:53:00,84.0,59.0,-100.00,NW,324,5.0,9.0,43,0.00,,,0.00,335.000000,,2013-07-13 23:53:00,
2013-07-13 19:12:00,84.0,59.0,-100.00,NW,324,5.0,9.0,43,0.00,,,0.00,335.000000,,2013-07-14 00:12:00,
2013-07-13 19:21:00,84.0,59.0,-100.00,NW,324,5.0,9.0,43,0.00,,,0.00,335.000000,,2013-07-14 00:21:00,
2013-07-13 19:33:00,84.0,59.0,-100.00,NW,324,5.0,9.0,43,0.00,,,0.00,335.000000,,2013-07-14 00:33:00,
2013-07-13 19:42:00,84.0,59.0,-100.00,NW,324,5.0,9.0,43,0.00,,,0.00,335.000000,,2013-07-14 00:42:00,
2013-07-13 20:11:00,80.0,59.0,-100.00,NW,307,2.0,9.0,48,0.00,,,0.00,115.000000,,2013-07-14 01:11:00,
2013-07-13 20:22:00,80.0,59.0,-100.00,NW,307,2.0,9.0,48,0.00,,,0.00,115.000000,,2013-07-14 01:22:00,
2013-07-13 20:32:00,80.0,59.0,-100.00,NW,307,2.0,9.0,48,0.00,,,0.00,115.000000,,2013-07-14 01:32:00,
2013-07-13 20:43:00,80.0,59.0,-100.00,NW,307,2.0,9.0,48,0.00,,,0.00,115.000000,,2013-07-14 01:43:00,
2013-07-13 20:52:00,80.0,59.0,-100.00,NW,307,2.0,9.0,48,0.00,,,0.00,115.000000,,2013-07-14 01:52:00,
2013-07-13 20:53:00,74.0,60.0,-100.00,West,280,0.0,4.0,61,0.00,,,0.00,8.000000,,2013-07-14 01:53:00,
2013-07-13 21:11:00,74.0,60.0,-100.00,West,280,0.0,4.0,61,0.00,,,0.00,8.000000,,2013-07-14 02:11:00,
2013-07-13 21:22:00,74.0,60.0,-100.00,West,280,0.0,4.0,61,0.00,,,0.00,8.000000,,2013-07-14 02:22:00,
2013-07-13 21:32:00,74.0,60.0,-100.00,West,280,0.0,4.0,61,0.00,,,0.00,8.000000,,2013-07-14 02:32:00,
2013-07-13 21:43:00,74.0,60.0,-100.00,West,280,0.0,4.0,61,0.00,,,0.00,8.000000,,2013-07-14 02:43:00,
2013-07-13 21:53:00,70.0,62.0,-100.00,NNW,329,0.0,4.0,76,0.00,,,0.00,1.000000,,2013-07-14 02:53:00,
2013-07-13 22:11:00,70.0,62.0,-100.00,NNW,329,0.0,4.0,76,0.00,,,0.00,1.000000,,2013-07-14 03:11:00,
2013-07-13 22:22:00,70.0,62.0,-100.00,NNW,329,0.0,4.0,76,0.00,,,0.00,1.000000,,2013-07-14 03:22:00,
2013-07-13 22:32:00,70.0,62.0,-100.00,NNW,329,0.0,4.0,76,0.00,,,0.00,1.000000,,2013-07-14 03:32:00,
2013-07-13 22:43:00,70.0,62.0,-100.00,NNW,329,0.0,4.0,76,0.00,,,0.00,1.000000,,2013-07-14 03:43:00,
2013-07-13 22:53:00,68.0,62.0,-100.00,ESE,123,0.0,2.0,82,0.00,,,0.00,1.000000,,2013-07-14 03:53:00,
2013-07-13 23:11:00,68.0,62.0,-100.00,ESE,123,0.0,2.0,82,0.00,,,0.00,1.000000,,2013-07-14 04:11:00,
2013-07-13 23:22:00,68.0,62.0,-100.00,ESE,123,0.0,2.0,82,0.00,,,0.00,1.000000,,2013-07-14 04:22:00,
2013-07-13 23:32:00,68.0,62.0,-100.00,ESE,123,0.0,2.0,82,0.00,,,0.00,1.000000,,2013-07-14 04:32:00,
2013-07-13 23:42:00,68.0,62.0,-100.00,ESE,123,0.0,2.0,82,0.00,,,0.00,1.000000,,2013-07-14 04:42:00,
2013-07-13 23:53:00,68.0,63.0,-100.00,South,174,0.0,0.0,84,0.00,,,0.00,1.000000,,2013-07-14 04:53:00,